User: anonymous   Login
Location: Caltech
(34.1382°N, 118.1253°W)
Time: 21:36:04
(UTC-07:00)
Language:

OAO 2 Rocket - Orbit

View from above orbital plane
View from above orbital plane
View from above satellite
View from above satellite

Ground track
Ground track

The orbit data is extracted from the following two-line orbital elements,

1  3598U 68110B   17232.61001760 +.00000061 +00000-0 +18869-4 0  9990
2  3598 034.9945 333.4297 0049165 029.5469 330.7988 14.54319895554957
Epoch (UTC): 20 August 2017 14:38:25
Eccentricity: 0.0049165
inclination: 34.9945°
perigee height: 677 km
apogee height: 746 km
right ascension of ascending node: 333.4297°
argument of perigee: 29.5469°
revolutions per day: 14.54319895
mean anomaly at epoch: 330.7988°
orbit number at epoch: 55495

The dashed part of the orbit path shows where the satellite is in the earth's shadow,  

DLR